Wind_Speed
2 0 2 4 7 8 9 10 10 10 8 7 8 8 8 9 9 9 9 8 7 8 10 11 12 15 17 19 21 21 18 14 10 6 4 4 3 3 4 6 7 9 10 10 10 10 10 9 8 6 5 4 3 2 0 1 2 2 3 3 3 2 2 3 4 5 5 5 5 4 4 5 6 8 9 9 8 7 6 6 3 0 3 7 13
2 1 3 5 6 7 8 11 12 11 9 7 7 8 9 9 9 9 9 8 7 8 9 10 12 14 16 19 21 22 20 15 10 7 4 3 2 2 3 6 9 11 11 11 11 10 8 6 6 6 6 5 4 3 3 2 1 1 2 3 3 2 1 1 3 4 5 5 4 4 3 3 4 6 7 8 8 7 6 6 4 2 1 3 7
2 1 3 4 5 6 9 12 13 13 12 10 7 8 9 10 10 10 9 7 6 7 8 10 12 14 16 18 19 20 20 15 10 7 4 3 3 3 3 6 10 11 11 11 10 9 8 6 7 9 9 8 6 4 4 4 3 2 1 3 4 3 2 1 2 4 5 3 3 3 2 3 4 5 6 7 6 5 5 5 5 4 2 2 3
2 2 2 3 5 7 10 12 13 14 14 10 8 9 10 9 10 9 7 7 6 6 7 9 12 14 17 17 17 19 19 14 10 6 5 5 3 3 4 6 10 12 12 10 9 9 9 8 9 11 11 11 9 7 5 4 4 3 2 1 2 3 3 2 1 3 4 3 3 3 2 2 3 4 4 4 4 4 4 4 5 5 5 4 3
1 1 2 4 6 8 9 10 12 15 14 10 8 11 12 11 11 9 8 8 9 7 6 9 12 14 17 17 18 21 18 13 10 7 6 5 4 3 4 7 11 12 12 11 10 10 10 10 10 12 13 14 13 11 10 6 1 2 2 2 2 2 3 4 2 3 3 3 3 2 1 1 2 3 2 2 2 2 2 3 4 5 6 7 6
1 3 4 6 7 8 9 10 12 15 13 8 8 10 13 14 13 11 9 8 10 10 8 9 12 15 17 19 21 20 15 12 12 10 7 6 4 4 5 7 10 12 11 12 12 12 11 10 10 12 14 16 16 13 12 10 7 4 2 1 1 1 2 3 3 3 3 4 4 3 3 2 1 3 2 2 1 1 1 2 4 5 6 8 9
3 5 6 7 6 8 9 10 12 15 13 7 6 9 12 13 13 13 9 7 9 10 9 10 13 15 17 19 20 17 13 12 13 11 8 5 4 5 6 8 11 12 10 10 12 13 12 11 11 12 14 16 16 13 11 11 10 8 6 4 3 2 2 3 3 3 4 4 4 4 3 2 2 2 3 3 3 3 1 1 3 5 5 7 8
3 4 6 6 6 7 9 10 12 15 14 10 6 7 9 11 14 13 11 12 12 9 8 10 13 15 16 18 19 17 13 12 13 11 8 6 5 6 9 11 12 12 11 10 11 13 12 11 11 11 12 13 13 11 10 9 9 8 8 6 6 5 3 3 3 3 3 3 4 4 3 3 3 2 3 4 4 4 4 4 5 5 5 6 6
4 5 6 5 4 6 7 9 10 12 15 14 10 8 9 11 14 14 14 17 18 15 13 13 14 13 13 17 21 19 15 12 11 10 7 6 7 8 10 13 13 12 12 12 12 12 13 13 11 10 9 9 8 7 7 6 6 8 10 9 7 5 5 4 4 3 2 2 2 4 4 4 3 3 3 4 5 5 6 6 5 4 4 3 3
5 5 7 6 4 4 6 8 8 10 13 14 13 11 10 11 13 14 14 15 16 17 17 17 17 15 14 18 22 22 18 12 8 7 6 5 6 8 11 13 13 13 13 13 13 13 15 15 13 10 6 4 3 4 4 4 4 4 8 12 10 6 4 5 5 4 3 2 1 2 4 5 5 4 3 5 6 7 8 7 5 3 2 0 1
6 6 8 7 4 3 5 6 7 9 12 12 12 12 11 11 12 12 11 10 12 15 17 18 18 16 16 20 23 24 23 16 7 4 4 5 5 8 11 12 12 14 14 14 15 16 17 17 14 10 6 3 3 5 5 4 2 1 3 9 12 10 9 8 8 6 5 5 4 4 4 5 6 6 6 6 7 8 9 9 7 4 2 1 1
6 7 7 7 5 2 2 3 5 8 10 10 10 11 11 11 11 11 10 9 11 15 17 18 18 17 18 22 23 25 26 22 11 3 2 4 5 7 10 12 13 14 14 16 18 19 19 19 15 10 8 6 6 8 8 5 1 2 2 1 4 7 7 8 8 7 6 6 7 6 5 5 6 8 8 8 7 7 8 8 7 5 3 2 1
5 6 6 6 6 4 1 0 2 5 7 8 9 10 10 10 10 11 11 11 12 14 16 17 18 18 19 21 23 25 27 27 20 10 3 3 4 6 8 10 12 13 14 16 19 19 20 21 18 13 10 9 8 9 10 5 1 1 2 2 2 1 2 3 4 5 6 7 7 8 7 5 5 7 8 8 7 7 7 7 7 4 1 1 1
3 3 4 5 7 6 2 1 1 3 5 6 8 9 10 9 9 9 10 11 13 14 15 16 17 18 19 19 20 22 24 27 27 21 12 5 4 6 7 8 9 11 13 15 18 19 20 21 21 16 12 11 10 9 9 8 4 1 2 3 3 3 3 3 3 4 5 6 7 7 7 7 6 6 6 7 7 6 5 5 5 4 1 1 1
3 4 4 6 8 8 4 1 1 3 5 6 7 8 7 6 7 9 8 10 12 12 13 14 15 17 18 18 18 19 20 22 25 26 23 15 8 6 7 8 8 9 10 13 17 19 19 19 18 15 14 14 13 10 9 9 6 3 1 1 2 2 3 3 4 5 5 6 6 5 5 5 6 6 5 5 7 7 5 4 5 6 3 1 2
5 5 5 6 7 8 7 5 4 4 5 5 5 7 7 6 6 8 8 9 10 11 11 12 13 15 16 16 16 16 18 19 22 24 26 24 18 10 7 7 7 7 9 12 16 18 19 17 15 13 14 14 13 11 9 9 7 5 4 3 2 2 3 4 6 6 6 6 5 4 5 4 4 5 5 4 6 8 6 4 4 6 4 1 3
6 5 5 6 7 7 7 7 7 7 7 7 7 8 9 7 6 7 9 9 9 10 10 11 12 13 14 14 14 15 16 18 20 22 24 25 23 18 11 8 6 7 9 11 13 15 17 15 12 11 14 14 13 11 10 10 10 9 8 8 6 5 4 5 7 7 6 5 4 5 6 4 4 6 6 6 7 8 8 7 6 5 4 3 1
7 6 4 5 6 6 7 7 8 8 8 7 7 9 10 9 7 7 8 8 8 9 9 10 11 13 13 13 13 14 15 17 19 20 22 23 24 21 16 10 7 6 8 11 10 11 13 12 8 9 12 13 12 11 10 11 12 11 12 12 12 11 8 5 6 6 5 3 3 5 5 4 5 7 8 8 9 11 10 9 7 5 4 3 2
8 6 4 4 4 4 5 6 7 8 6 5 6 8 9 10 9 9 7 6 7 7 7 7 9 12 13 13 12 13 14 16 18 19 20 22 23 22 19 15 10 6 7 11 11 10 10 9 6 7 9 10 11 11 10 10 11 12 13 14 14 16 14 7 4 4 3 3 2 4 3 2 3 5 7 8 10 11 11 11 8 5 3 4 3
7 6 5 4 4 3 3 4 5 7 5 4 6 7 8 10 11 9 7 5 5 5 6 6 8 10 13 13 13 13 13 14 16 17 18 20 22 22 20 19 15 9 8 11 11 8 8 7 5 5 7 8 9 10 10 11 11 12 13 13 14 16 17 13 6 2 1 1 2 2 1 1 3 5 7 8 7 8 11 13 11 7 3 2 3
7 7 7 5 4 3 2 3 4 6 6 5 6 7 9 10 11 9 8 6 6 6 6 7 8 9 12 13 13 12 12 13 14 16 17 19 21 21 19 19 19 13 10 10 9 7 6 6 5 6 8 8 8 9 11 12 12 12 12 12 14 15 17 16 9 2 2 3 2 1 2 2 2 3 3 5 7 8 9 10 11 10 7 5 4
7 8 9 7 6 5 4 3 3 5 5 5 5 6 9 10 10 10 9 8 8 7 6 7 7 8 9 11 11 11 11 12 14 15 16 18 21 21 18 19 21 16 11 9 6 6 6 6 6 8 9 7 7 7 10 11 11 12 12 12 13 15 18 16 10 4 3 3 3 3 2 2 1 3 5 6 7 8 8 7 8 7 6 5 5
6 8 9 8 8 8 6 5 4 4 4 4 4 6 8 9 9 10 10 9 9 8 8 8 8 8 8 9 9 10 11 12 13 14 15 16 20 21 18 18 20 16 9 7 6 6 6 6 7 9 7 6 7 8 9 10 10 9 11 12 14 17 18 14 9 5 3 3 3 3 2 2 4 5 6 7 7 7 6 6 6 5 5 5 5
4 6 7 8 9 9 8 7 7 5 4 4 5 6 8 8 9 9 10 10 10 10 10 9 9 9 8 8 9 10 11 12 13 14 15 16 19 21 18 17 18 13 8 8 8 6 6 6 7 7 5 5 7 8 9 10 9 8 10 11 14 17 17 12 8 6 5 5 7 6 4 4 4 5 6 6 5 4 4 5 5 4 5 6 6
4 4 5 6 7 8 8 7 7 6 4 4 5 6 6 7 7 8 10 12 12 11 10 9 9 9 9 10 11 11 12 13 13 13 14 16 18 19 17 15 15 11 8 9 9 8 7 5 4 6 6 6 7 8 8 8 8 9 11 12 15 17 16 12 8 6 6 8 10 9 6 4 3 3 4 4 4 3 2 3 5 4 5 7 5
4 4 3 4 5 6 6 5 4 4 4 6 7 7 7 7 7 7 10 12 12 11 10 10 10 10 10 12 13 13 13 14 14 14 14 15 16 17 16 14 12 9 7 8 10 9 7 5 4 6 9 8 7 7 7 6 7 9 11 14 16 18 17 13 9 7 8 10 12 12 10 6 3 1 2 3 3 3 2 3 5 5 5 6 5
4 4 3 2 3 4 5 4 3 3 5 7 8 8 8 9 8 8 10 10 10 10 10 10 11 11 11 12 13 13 14 15 16 16 16 16 16 16 15 13 11 7 5 5 7 8 8 6 6 8 10 11 11 7 5 5 6 8 12 14 16 18 16 11 7 6 9 11 12 13 10 5 2 1 1 2 2 2 3 2 4 5 4 3 4
2 3 3 2 2 4 5 5 4 4 5 7 8 8 8 8 9 9 9 9 9 9 10 10 10 10 11 12 13 14 14 15 16 17 17 18 17 16 14 13 10 7 5 3 4 6 5 5 7 8 10 15 14 6 4 6 7 8 12 13 14 17 16 11 7 8 10 12 13 12 9 6 3 2 1 1 2 3 3 2 2 3 3 1 2
1 2 2 2 2 3 5 6 5 5 6 7 8 7 7 9 10 10 8 7 8 9 11 11 10 10 12 13 14 15 15 15 16 17 18 18 17 15 13 12 9 7 5 3 2 3 3 4 5 5 9 15 12 7 7 9 8 8 12 12 12 16 16 15 15 15 13 14 14 13 10 7 4 2 0 1 3 4 4 4 3 2 1 1 2
3 3 2 2 3 5 7 8 7 6 7 8 8 8 8 9 11 11 8 7 8 10 11 11 11 11 13 13 13 14 15 14 15 16 17 17 16 13 11 10 8 6 5 3 1 2 3 4 3 2 8 15 10 7 7 10 9 10 12 11 13 16 15 15 18 18 16 16 15 13 12 9 5 3 2 2 3 5 5 6 5 2 1 1 2
5 4 3 3 4 6 8 9 8 7 6 6 8 9 9 9 10 9 8 8 9 9 9 10 11 11 13 13 12 13 13 14 15 15 16 16 15 12 10 9 8 6 5 4 2 2 3 5 4 3 8 13 8 6 6 8 8 9 11 9 11 14 14 15 17 18 17 17 15 13 12 10 7 6 5 5 6 6 6 7 5 1 2 2 4
6 7 6 4 4 5 7 9 9 7 7 7 8 8 9 9 8 6 5 6 8 9 9 10 10 10 12 12 12 11 12 14 15 15 15 13 12 11 9 8 7 6 5 5 4 4 4 5 5 4 6 11 8 3 5 7 8 8 8 8 9 11 13 14 15 16 17 18 16 14 12 10 9 8 8 9 8 6 6 5 3 2 3 4 4
2 4 5 4 3 4 6 7 7 8 8 8 7 7 7 8 9 8 7 7 7 8 9 9 9 10 11 12 12 12 12 13 13 13 12 10 9 9 9 8 7 6 5 5 5 4 5 6 6 5 5 9 10 4 3 6 7 7 7 7 9 9 10 12 13 15 17 18 16 14 13 11 10 10 11 11 9 5 3 3 2 1 2 3 3
4 3 2 2 3 4 6 6 6 7 9 8 7 7 7 7 8 9 9 9 9 10 10 10 9 10 11 11 12 12 11 11 11 11 10 8 7 8 8 7 6 5 4 5 5 4 6 8 8 6 5 7 10 7 2 3 5 5 5 5 6 7 8 11 13 14 16 17 15 14 14 13 13 12 14 16 13 6 3 2 2 2 1 1 1
5 4 3 3 4 5 6 5 5 6 7 7 8 8 8 8 8 7 7 9 9 11 12 11 10 10 10 10 10 10 10 11 11 11 10 8 8 8 8 6 5 4 3 3 4 3 6 8 8 6 6 6 9 8 4 0 3 2 2 3 3 5 7 11 13 14 15 15 14 13 14 14 13 13 15 18 17 11 6 3 2 3 4 4 3
4 2 2 3 4 6 6 5 4 6 7 7 8 8 7 7 6 5 5 6 7 9 11 12 13 13 10 9 9 10 9 10 11 11 10 8 7 7 7 5 4 4 3 1 3 3 5 8 9 7 6 5 8 8 5 2 2 1 4 3 2 4 7 11 14 15 15 15 14 11 11 10 10 11 12 15 17 16 11 7 3 3 6 7 6
3 1 2 4 5 6 6 5 4 6 7 7 6 6 5 5 5 6 6 7 7 8 8 10 12 13 12 11 10 10 9 9 10 10 9 8 7 6 6 4 4 6 6 3 2 3 4 6 9 8 6 5 7 9 7 4 3 2 4 2 2 3 7 10 15 16 15 14 13 10 9 7 8 9 10 12 15 16 14 10 8 7 7 8 7
2 2 3 5 5 6 6 5 6 7 7 6 4 4 4 5 7 8 10 10 10 10 9 9 10 11 12 12 11 10 10 10 10 9 9 8 8 6 5 4 3 5 6 5 4 5 5 6 6 7 6 5 7 10 10 4 4 1 4 1 2 4 8 11 15 17 15 13 11 9 8 7 8 8 8 11 14 14 13 11 11 10 9 8 7
2 4 5 6 6 7 6 6 7 7 7 5 3 3 5 7 9 11 12 13 12 11 11 11 10 10 10 11 11 11 10 10 9 9 9 8 7 6 5 5 4 3 5 6 6 7 7 6 4 6 6 7 8 10 12 5 5 2 3 1 2 6 9 12 14 14 12 11 10 8 6 6 6 7 8 10 13 12 10 9 9 8 9 9 8
4 5 7 7 7 8 6 6 7 7 5 4 4 6 7 9 10 12 12 11 10 9 10 11 11 10 10 11 11 12 11 10 9 9 8 8 7 6 5 5 5 4 4 6 8 8 7 5 4 5 6 8 9 9 11 6 5 6 3 2 3 6 8 10 12 12 11 10 10 8 6 5 6 7 8 10 11 9 6 6 7 8 10 9 8
6 7 7 8 9 7 5 6 6 6 5 5 5 7 10 10 11 11 10 9 9 10 11 11 12 11 11 11 12 12 12 11 9 8 7 7 6 5 4 4 4 5 4 5 8 8 7 5 5 7 8 9 9 8 8 7 4 6 7 6 5 6 7 9 9 10 11 11 10 9 7 6 7 8 8 11 11 7 2 3 7 9 11 10 10
7 7 8 9 9 7 6 7 6 6 7 8 7 7 9 10 10 10 10 9 10 11 12 12 13 12 11 11 12 13 12 11 9 8 7 7 6 6 5 4 5 6 6 5 7 7 7 7 7 8 9 10 10 8 6 6 6 6 8 10 11 9 8 7 7 8 10 11 10 9 8 7 7 8 8 10 11 6 1 2 6 8 8 9 9
8 9 10 11 9 7 8 9 8 6 6 7 5 5 6 8 10 12 12 11 11 12 13 13 14 14 12 11 12 13 13 12 10 8 8 7 7 7 5 5 7 8 7 7 7 7 8 8 8 9 9 10 10 8 7 6 6 8 8 10 12 12 9 6 5 7 9 9 9 10 10 9 8 8 8 10 10 7 3 3 6 7 6 7 8
11 12 12 11 9 7 8 11 10 7 4 2 3 6 8 9 10 12 13 13 12 13 13 14 13 13 13 12 12 13 13 12 11 10 9 8 8 8 7 6 7 8 8 8 7 7 9 10 10 10 9 10 10 8 7 6 7 9 11 11 11 12 10 7 6 7 8 8 9 10 11 11 10 9 9 10 9 6 3 3 5 6 5 5 6
13 13 12 9 7 7 8 10 10 7 5 3 5 9 9 9 9 11 12 12 12 13 14 14 13 12 12 13 14 13 11 10 11 11 10 9 9 8 7 7 7 7 8 7 7 7 10 12 12 11 10 10 9 8 6 7 9 11 12 12 11 10 10 9 8 7 8 9 9 10 11 12 11 10 10 10 9 5 2 2 4 4 3 5 5
13 13 10 8 8 8 9 9 8 7 5 5 8 9 9 9 10 11 11 11 11 12 13 13 14 13 13 14 15 14 12 11 12 12 12 11 10 9 8 8 8 7 7 6 7 8 10 12 13 13 12 11 9 7 7 8 10 11 11 10 8 8 9 9 9 8 8 9 10 11 12 12 11 10 10 9 9 6 3 1 2 3 3 5 4
14 12 9 8 9 9 9 7 6 6 5 7 9 10 10 10 9 10 11 12 13 13 13 13 13 13 13 15 16 16 14 13 13 13 14 13 11 10 9 9 9 8 7 7 7 8 10 12 13 14 13 12 10 8 8 9 9 10 10 8 6 6 6 7 7 7 8 10 11 12 12 11 10 9 9 8 9 8 5 2 2 2 3 5 4
13 10 9 9 9 9 7 7 7 5 7 9 10 11 11 9 9 10 12 14 14 15 15 15 14 12 12 13 15 17 16 15 14 14 14 13 12 10 10 10 9 8 8 7 8 9 9 10 11 12 12 12 10 9 8 8 9 9 9 6 4 4 3 3 5 7 9 11 12 12 11 9 8 8 8 8 8 8 6 1 2 2 5 5 4
10 11 10 10 9 8 8 8 6 6 9 11 12 12 12 11 10 10 12 12 13 14 15 15 15 14 14 13 12 13 15 16 15 14 14 14 13 12 12 11 10 9 9 9 10 10 9 10 10 10 10 10 9 7 7 8 9 9 7 5 3 3 4 5 6 9 10 12 12 11 8 7 6 7 7 7 7 7 5 1 4 5 5 4 2
9 11 11 10 9 8 10 9 7 8 10 12 13 12 11 10 11 12 12 12 13 15 15 15 15 15 15 15 13 12 12 13 13 13 13 13 14 14 13 12 11 11 11 11 11 11 10 10 9 9 9 8 7 7 7 8 9 8 6 6 6 5 5 5 7 9 12 13 11 8 7 5 5 6 6 6 6 5 2 2 5 6 5 3 1
9 10 11 11 10 10 12 11 9 9 11 12 11 10 10 10 11 13 14 15 15 15 15 14 15 15 15 16 16 15 13 12 13 14 13 12 12 13 13 12 12 12 12 12 12 11 11 10 9 9 9 8 8 8 8 8 9 8 6 6 6 5 5 5 7 9 13 14 11 8 6 5 5 6 6 5 5 4 3 4 5 6 5 3 1
Wind_Direction
162 149 351 345 342 349 1 5 5 5 358 341 334 341 349 351 351 354 3 6 353 345 350 358 2 1 355 350 348 349 355 8 27 40 69 94 84 59 54 54 45 30 17 11 10 1 348 340 335 336 341 333 320 321 331 150 159 163 158 153 155 157 141 133 120 99 95 96 78 52 41 33 22 24 25 22 24 29 32 35 45 182 226 230 229
189 239 307 320 330 347 5 7 4 4 0 351 343 341 347 355 354 352 1 3 350 353 3 6 2 1 357 351 349 351 354 3 23 41 63 103 99 59 55 51 37 23 10 6 6 2 354 353 359 4 3 356 336 302 284 269 247 209 159 141 148 172 160 126 123 108 111 118 98 70 54 37 23 15 18 22 22 22 31 43 48 39 277 239 231
187 264 301 316 341 4 10 6 5 6 1 356 353 350 349 353 356 358 4 5 7 23 29 17 8 5 358 351 353 358 359 6 22 40 80 123 107 73 57 45 35 21 9 8 10 8 6 9 15 14 9 1 352 332 301 273 265 273 198 140 135 158 177 150 122 114 110 105 81 72 64 44 36 22 15 18 20 23 34 36 29 23 11 323 263
239 273 307 343 5 15 13 7 8 11 8 4 2 3 3 2 5 13 21 25 37 50 40 19 10 5 359 357 0 3 5 15 30 50 105 123 103 73 50 40 35 24 14 12 12 12 12 9 4 2 2 359 354 352 343 302 265 266 261 208 152 157 168 179 156 122 114 104 88 83 65 37 38 28 18 18 14 15 37 40 23 16 20 15 345
258 269 325 345 355 6 11 7 11 19 20 14 13 20 25 26 25 35 48 43 40 42 26 9 9 7 4 4 5 6 11 29 48 71 108 111 89 67 46 39 34 24 15 13 13 10 6 6 2 354 353 357 2 8 13 13 7 220 237 247 233 177 167 175 170 138 133 131 128 132 159 340 3 354 360 33 15 348 18 47 43 37 40 38 25
42 18 2 355 358 11 14 10 18 28 30 27 34 37 34 31 28 31 41 36 26 26 17 5 11 15 9 6 7 11 24 48 60 73 93 96 80 55 29 26 25 16 5 4 7 3 356 358 358 352 352 354 359 10 25 38 57 87 105 131 191 175 167 173 164 149 152 155 157 174 203 229 306 321 334 358 346 330 15 62 62 62 68 63 55
6 9 10 10 17 23 18 16 28 37 39 42 54 44 35 32 26 21 27 26 12 10 11 15 24 23 15 13 16 22 41 65 69 72 77 75 60 28 11 13 18 13 2 358 358 353 350 348 342 345 353 352 352 8 34 48 57 70 75 76 95 111 128 142 141 148 157 168 181 193 214 236 250 296 332 334 318 318 342 66 65 59 71 75 72
6 20 19 19 29 29 23 25 34 37 39 48 59 44 34 30 25 26 39 44 34 24 18 17 19 17 20 27 30 32 46 65 70 66 61 53 34 16 13 14 16 12 4 359 354 349 350 350 340 336 340 339 343 5 31 43 51 59 58 56 67 72 75 98 113 128 140 156 183 198 223 251 247 253 278 286 285 302 336 5 23 32 50 67 78
61 51 37 38 40 31 27 32 36 34 36 45 53 47 37 34 37 44 52 50 45 42 36 24 18 22 31 37 36 36 42 55 63 57 46 38 26 16 16 15 11 6 2 0 359 357 359 360 355 345 328 319 333 2 22 33 40 46 48 53 65 61 46 58 78 86 101 128 177 212 237 261 269 265 280 305 319 331 340 341 346 12 38 51 75
78 51 41 48 42 27 29 32 35 34 34 41 48 46 40 41 45 47 48 47 44 42 38 34 35 42 44 38 36 37 39 45 60 58 41 30 22 19 21 18 12 9 8 9 11 9 3 1 5 8 352 323 339 359 4 12 17 41 56 60 66 63 40 37 49 57 59 59 39 276 274 286 296 295 310 335 339 335 331 323 319 347 22 52 141
62 46 46 55 55 38 38 37 34 32 33 38 43 43 40 46 52 49 47 46 40 38 36 34 39 47 45 39 35 36 37 38 48 70 45 21 18 24 27 24 17 15 19 22 19 12 5 3 8 17 26 34 26 15 8 359 345 164 97 68 66 69 64 52 44 45 47 42 30 358 324 313 313 313 312 317 323 328 331 326 323 337 12 54 147
58 47 49 59 63 54 42 43 37 36 38 36 34 37 37 45 57 57 50 45 39 38 36 36 44 49 46 40 36 35 37 34 35 65 58 15 12 16 25 28 22 19 25 25 17 12 13 17 23 33 39 43 41 34 30 22 23 179 187 110 77 72 62 48 36 32 27 19 16 11 357 335 324 324 320 316 316 323 328 325 322 333 11 21 355
57 48 49 49 46 39 17 275 37 37 38 29 25 28 28 35 53 53 41 38 41 40 38 40 47 49 44 39 35 37 39 37 35 40 40 9 6 6 18 29 24 21 24 22 16 15 19 21 27 37 42 43 45 38 36 39 79 195 235 242 226 263 342 355 7 13 6 4 17 26 23 11 350 339 336 332 324 321 321 321 318 325 21 69 353
38 35 31 25 29 36 40 228 291 9 20 15 11 16 17 25 47 50 37 32 39 41 40 39 42 43 41 38 33 34 39 39 37 37 35 19 351 352 3 15 22 25 24 18 15 18 20 19 23 31 38 43 45 37 34 42 44 310 267 272 272 279 298 310 335 2 8 22 42 51 47 39 30 19 8 359 352 346 340 336 326 321 356 114 201
21 21 25 26 32 46 63 75 321 350 7 4 1 11 19 27 47 51 39 32 37 40 37 37 38 35 35 34 28 26 30 32 31 33 34 31 15 343 337 351 14 26 20 15 17 21 20 15 17 27 37 41 42 38 38 43 43 37 19 312 294 318 350 8 28 34 41 49 54 63 68 53 38 35 32 21 15 10 3 358 337 321 329 85 237
25 27 37 39 35 47 65 69 63 52 41 33 29 35 39 40 48 51 41 34 37 38 36 36 36 31 28 27 22 17 19 21 21 23 28 31 31 22 353 348 7 21 17 14 17 19 18 12 12 30 45 42 39 40 44 47 45 44 48 43 39 40 43 68 78 72 68 64 48 46 56 48 37 43 35 11 6 5 355 332 302 290 289 300 254
31 18 33 44 37 41 56 63 64 57 49 49 50 50 49 47 45 42 39 40 41 40 37 33 32 28 22 19 17 13 12 15 15 15 19 24 29 31 24 4 357 5 9 10 13 19 20 12 11 37 51 46 40 39 44 48 43 39 40 40 41 51 81 121 115 97 87 74 51 55 60 46 41 48 31 358 343 341 328 309 294 280 277 300 302
23 13 24 40 35 31 36 40 41 35 29 30 37 46 53 55 44 30 35 47 49 42 34 26 25 24 19 15 14 10 9 10 10 10 13 18 21 25 26 15 356 348 354 4 19 35 33 23 22 42 47 43 40 40 42 42 34 28 31 33 35 43 60 112 129 110 107 119 75 73 79 61 44 46 33 7 346 339 336 328 321 307 287 297 346
26 29 28 21 10 2 4 8 17 23 22 26 38 46 52 50 40 29 33 53 58 43 24 12 15 17 15 14 12 8 7 8 6 7 11 14 16 18 19 15 5 342 337 360 25 50 51 43 42 40 33 29 32 38 44 44 33 25 26 26 28 33 36 47 92 97 107 151 116 78 78 45 15 10 6 354 341 346 1 4 354 334 291 281 296
33 32 22 17 14 354 332 336 7 27 33 35 40 45 46 39 30 26 28 35 38 29 12 4 9 12 12 12 10 7 5 5 6 8 10 11 12 13 13 11 7 349 330 356 24 57 66 61 63 44 26 17 13 25 43 49 39 30 27 25 24 23 21 22 31 45 26 172 137 92 77 18 343 329 336 345 347 6 24 23 18 17 3 315 308
30 27 30 46 59 45 3 345 16 40 49 43 34 37 39 31 22 19 19 16 13 10 359 356 1 7 10 11 9 6 5 4 5 7 8 8 9 10 10 8 5 354 340 358 28 68 76 72 71 42 25 14 2 17 41 44 35 30 29 26 23 16 8 8 8 338 288 274 252 261 284 299 322 334 4 23 25 35 46 41 32 32 32 34 40
38 40 46 62 73 66 55 39 40 50 50 43 36 33 33 29 22 16 11 7 8 3 350 350 356 2 9 11 8 4 3 1 1 4 5 5 6 8 9 7 3 358 358 11 46 82 76 68 54 30 21 18 13 26 38 30 18 21 25 23 17 8 360 1 5 354 316 300 288 287 291 296 21 55 61 56 39 37 55 63 53 47 46 52 55
44 50 52 60 66 65 58 45 45 54 53 50 42 26 21 21 19 12 6 4 6 1 351 346 347 350 360 7 3 358 358 356 353 356 360 360 2 5 8 7 4 5 18 45 75 86 70 55 37 25 25 28 24 29 35 24 10 13 19 14 5 0 359 3 16 25 15 7 16 32 58 76 75 65 53 47 35 31 46 59 58 61 68 73 72
39 45 49 49 51 56 55 49 51 61 66 55 35 17 9 6 3 360 357 1 1 356 351 346 342 344 348 352 351 348 348 348 346 348 353 354 357 1 4 7 10 19 54 79 76 60 42 35 30 33 47 48 25 18 24 26 18 13 14 5 356 357 2 14 36 48 43 36 37 43 59 65 62 54 40 31 21 13 27 46 49 65 82 77 74
31 32 39 34 37 44 48 53 57 60 55 32 12 3 355 349 347 338 335 343 347 345 343 341 339 339 336 336 340 338 335 339 341 342 346 348 353 359 2 6 15 35 74 73 51 32 24 30 43 44 43 40 28 21 26 32 26 17 12 4 359 2 7 20 46 56 39 31 29 28 31 33 38 41 26 5 341 330 4 59 56 80 115 108 99
347 347 355 5 20 27 28 39 50 46 30 7 351 337 323 320 324 322 324 333 340 341 340 336 332 331 327 326 330 330 328 332 335 335 337 340 347 355 360 4 16 40 71 60 48 49 53 58 52 26 13 8 14 26 35 36 27 19 12 5 4 7 12 25 46 45 30 27 23 20 23 23 16 6 329 310 310 332 8 60 65 80 118 129 126
310 305 312 332 360 8 10 12 3 349 354 358 353 339 323 316 313 316 320 326 334 338 340 338 335 333 329 325 326 326 323 324 327 328 329 331 336 345 353 357 7 30 59 64 56 57 61 55 32 15 6 357 353 2 25 34 34 24 10 3 5 12 20 36 53 36 24 22 18 20 27 26 23 66 286 295 315 349 353 15 57 72 90 121 129
319 313 330 8 20 5 355 342 323 311 328 348 353 350 346 338 328 322 318 319 329 336 337 339 338 333 328 326 326 327 326 324 324 324 323 325 327 333 342 347 352 10 40 73 60 43 44 32 15 11 6 0 0 19 62 47 41 24 6 2 11 23 32 44 43 23 21 21 20 23 30 33 47 84 127 315 347 353 333 320 360 54 61 68 101
220 281 329 35 37 359 342 329 311 293 301 317 327 336 348 348 340 336 329 321 325 329 328 332 334 328 325 327 326 328 332 330 326 323 322 323 325 326 333 339 339 349 18 49 58 31 20 2 1 2 358 3 20 79 75 37 36 30 16 16 26 30 33 37 31 22 18 19 21 24 27 29 41 56 253 305 350 346 330 315 314 348 38 47 57
212 255 313 23 1 337 338 337 327 312 300 301 309 318 329 334 332 331 333 330 326 321 318 322 324 322 324 327 325 327 330 328 324 323 321 321 324 323 326 333 330 330 353 8 6 16 1 342 341 349 356 5 32 93 65 33 42 44 32 30 31 27 25 27 26 21 16 16 18 21 21 21 22 9 336 323 340 338 334 336 337 327 263 167 87
214 240 288 344 337 333 342 345 339 332 322 315 317 320 325 331 329 322 321 327 330 327 320 317 318 320 324 328 327 326 326 321 317 318 316 317 322 323 322 328 325 317 329 336 307 297 321 324 317 315 351 5 28 101 81 48 45 41 35 31 25 21 18 17 17 15 14 14 13 12 15 16 14 5 348 337 340 338 337 348 359 28 132 126 98
222 247 275 308 329 336 344 346 345 349 349 342 336 333 334 340 344 339 328 328 334 337 331 323 322 326 329 329 325 320 319 319 319 318 315 316 322 324 324 326 319 306 314 331 315 280 278 302 311 306 338 2 18 84 103 65 44 36 36 28 16 16 16 11 7 8 10 10 8 9 16 16 11 5 356 350 350 346 348 4 31 90 115 120 107
286 279 289 313 342 345 344 347 357 8 6 357 351 351 350 351 355 357 356 352 351 349 342 334 331 332 332 330 325 319 319 325 328 327 320 316 320 323 324 326 316 296 300 325 325 284 260 282 304 303 319 358 12 22 99 85 62 49 41 21 6 9 11 2 357 1 6 6 6 14 25 25 16 10 8 10 12 10 12 26 35 82 125 136 120
357 355 346 342 357 357 350 350 2 11 9 5 1 0 358 355 354 353 356 1 4 0 353 342 332 330 334 336 333 329 329 331 334 334 329 324 323 322 321 322 313 291 291 318 324 285 257 274 295 297 304 350 11 13 31 95 89 73 47 15 355 356 359 352 349 355 2 2 3 17 31 30 22 17 17 21 26 31 41 50 26 353 359 157 181
359 8 360 336 344 352 351 347 352 356 355 355 359 359 354 352 354 357 359 0 1 5 6 2 353 346 345 343 339 337 336 335 335 336 335 331 329 326 322 317 299 272 270 319 330 293 258 269 285 286 290 334 10 12 350 358 114 86 5 339 335 339 347 349 347 352 357 356 359 19 37 35 25 20 18 17 19 21 24 36 25 359 353 348 332
356 8 6 333 325 338 348 350 343 336 332 336 349 355 356 358 5 11 8 358 354 1 13 20 20 15 7 354 345 341 340 338 337 337 337 335 332 330 324 308 263 230 223 291 343 315 259 265 279 281 282 321 9 14 343 270 165 2 316 287 273 316 335 346 347 346 350 349 351 13 38 37 21 15 13 11 11 11 6 359 359 1 358 0 2
337 2 360 331 317 330 344 340 321 321 326 334 347 354 355 356 351 343 342 344 342 343 355 11 18 17 15 10 2 354 350 347 344 343 342 340 340 340 332 306 256 234 229 240 324 327 283 277 281 274 271 305 358 7 343 276 218 349 334 256 215 302 326 341 344 343 344 344 344 359 19 18 7 6 8 6 6 3 1 10 34 40 20 13 19
319 335 329 316 317 335 337 317 300 309 321 337 1 8 350 338 328 320 322 325 324 323 328 341 354 1 9 18 19 13 9 6 2 357 349 341 339 343 341 325 288 255 240 239 272 307 324 322 291 258 257 295 337 355 350 299 221 354 4 217 219 321 334 340 344 344 343 340 342 352 358 352 355 2 2 1 3 5 12 28 43 44 30 21 16
311 321 310 302 322 340 326 295 294 304 309 319 345 349 333 328 325 320 318 318 316 312 311 316 325 335 350 5 15 16 16 17 16 12 3 348 339 341 343 342 331 292 248 236 255 286 321 335 292 251 266 301 321 346 355 328 226 238 9 353 278 326 342 345 345 346 343 339 344 355 348 327 334 349 352 356 2 8 20 31 31 20 9 2 355
297 296 287 292 320 333 307 280 297 315 316 316 324 324 323 326 328 323 316 314 320 323 316 313 317 320 326 341 354 360 3 6 12 15 10 356 344 345 349 348 344 329 276 246 255 278 305 316 282 269 291 305 309 334 358 353 248 238 271 316 305 325 344 348 346 347 347 344 348 357 348 318 315 328 339 349 357 3 20 33 25 6 359 2 12
283 281 281 295 318 322 286 273 302 324 327 332 333 326 321 323 325 321 310 306 322 335 333 331 331 326 319 322 331 339 346 351 356 2 5 358 350 347 342 331 331 335 312 265 260 274 287 286 280 286 296 301 303 319 351 3 319 265 259 263 279 303 324 335 339 344 347 348 350 355 353 335 318 315 325 342 353 360 24 39 23 8 7 22 36
271 279 290 302 313 307 272 267 291 309 316 328 337 328 319 319 321 319 313 311 318 324 327 332 335 331 325 322 320 321 328 335 341 349 355 353 346 341 329 309 303 316 320 296 271 270 273 273 279 289 293 294 300 310 328 353 355 326 286 268 264 271 290 314 332 341 344 349 354 356 356 348 332 320 324 340 353 4 74 61 24 8 7 27 38
273 282 289 294 301 293 263 256 267 289 314 334 346 330 319 327 334 333 327 321 317 315 317 323 327 326 327 326 318 312 315 319 323 334 345 345 338 331 322 302 291 296 307 304 283 268 266 270 280 291 291 286 291 306 321 332 346 349 328 293 272 264 270 286 313 330 338 348 357 358 357 353 345 338 335 341 352 9 54 55 21 7 8 32 41
274 282 288 289 291 283 261 258 266 276 289 323 337 328 329 340 349 347 339 329 322 318 316 317 320 322 325 326 321 314 312 311 311 316 325 333 333 328 320 307 293 289 295 301 289 267 259 266 277 286 284 279 285 303 323 329 329 336 337 320 291 269 261 264 284 309 324 337 351 357 356 352 348 346 343 342 348 7 57 52 11 4 24 52 49
269 281 290 289 276 263 262 269 271 261 243 264 307 318 326 335 343 344 340 334 331 328 323 318 314 313 319 328 329 324 316 309 305 304 307 314 322 321 312 301 295 292 293 296 288 265 255 261 272 280 281 283 290 300 315 327 328 329 334 327 302 272 254 252 268 294 313 323 336 347 349 347 345 342 340 341 343 349 16 26 360 6 57 81 61
280 288 289 274 254 254 271 281 266 235 229 276 304 314 324 332 334 336 338 338 338 336 331 324 316 310 310 317 321 323 322 318 312 308 306 306 310 310 299 289 288 291 292 286 278 269 263 264 271 277 281 287 293 297 307 321 328 330 332 326 304 278 265 264 272 288 304 314 325 334 336 336 335 333 332 335 335 329 319 311 335 355 71 97 76
292 291 275 257 255 266 276 269 240 226 261 299 308 316 327 335 337 338 341 343 341 337 334 332 326 317 311 309 308 311 318 323 323 320 314 306 303 302 297 289 286 289 290 283 278 279 277 275 276 279 282 285 290 296 306 316 323 328 330 322 297 282 282 277 279 293 307 314 321 325 324 322 321 320 322 326 328 327 324 282 267 317 83 102 91
283 273 257 256 268 274 257 229 222 256 306 317 317 318 320 324 333 340 342 343 341 337 336 338 335 330 325 319 310 306 308 314 321 323 316 306 300 300 300 298 295 291 287 288 293 294 291 287 285 284 283 285 289 293 301 310 318 327 333 329 299 285 296 302 311 322 325 324 323 321 316 311 306 304 308 317 325 331 334 297 195 141 113 108 88
257 245 246 263 274 257 225 218 242 290 321 331 330 325 316 312 319 330 333 333 333 333 337 341 339 333 331 331 324 313 308 309 314 319 317 309 304 302 302 302 301 295 290 296 304 304 299 295 293 287 282 282 284 285 292 306 315 324 342 3 3 349 349 347 342 343 341 334 327 321 314 304 291 287 295 310 321 327 335 56 136 133 129 122 72
235 236 247 269 275 244 223 232 267 301 323 331 331 326 318 314 318 324 324 323 323 326 332 338 338 334 332 334 333 327 315 307 308 317 321 316 308 303 300 298 298 298 299 304 308 307 301 297 295 288 282 280 280 281 293 306 309 316 349 22 25 14 7 359 349 350 351 344 333 320 307 294 280 276 284 303 316 314 301 156 145 148 151 147 69
239 245 251 263 265 246 234 244 270 299 317 325 325 321 317 317 319 321 320 319 320 323 327 333 338 338 336 334 331 328 324 316 313 317 322 320 313 306 301 296 296 300 303 304 303 300 297 294 291 286 283 286 289 291 297 303 300 302 331 8 13 5 360 351 340 345 352 353 346 327 297 280 276 273 275 291 305 284 225 176 162 169 174 169 344
Height
1557 1556 1556 1555 1555 1554 1554 1554 1552 1552 1550 1549 1548 1546 1546 1545 1544 1543 1542 1540 1538 1537 1536 1535 1533 1532 1530 1528 1526 1524 1523 1522 1521 1520 1520 1520 1519 1518 1517 1516 1515 1514 1514 1514 1513 1513 1512 1511 1511 1510 1509 1509 1508 1508 1507 1507 1506 1505 1505 1504 1503 1502 1501 1500 1499 1499 1498 1498 1497 1496 1495 1494 1493 1492 1491 1490 1490 1489 1489 1488 1488 1488 1489 1489 1490
1556 1556 1556 1556 1556 1555 1555 1554 1552 1551 1550 1549 1548 1547 1546 1545 1544 1543 1541 1540 1539 1538 1536 1535 1533 1531 1529 1528 1526 1524 1522 1521 1521 1521 1520 1520 1519 1518 1517 1516 1515 1515 1514 1514 1513 1512 1512 1511 1510 1509 1509 1508 1508 1507 1507 1506 1505 1505 1504 1504 1503 1502 1501 1500 1499 1499 1498 1498 1497 1496 1496 1495 1493 1493 1492 1491 1490 1489 1488 1488 1488 1487 1487 1488 1488
1556 1556 1556 1556 1556 1555 1555 1554 1553 1551 1550 1549 1548 1547 1546 1544 1543 1542 1541 1540 1539 1538 1536 1535 1533 1531 1529 1528 1526 1524 1522 1521 1521 1521 1520 1520 1519 1518 1517 1517 1516 1516 1515 1514 1513 1512 1512 1511 1510 1509 1508 1508 1507 1506 1506 1505 1505 1504 1504 1503 1503 1502 1501 1500 1499 1499 1498 1497 1497 1496 1496 1495 1495 1494 1493 1492 1491 1490 1489 1488 1487 1486 1486 1486 1487
1556 1556 1556 1556 1556 1556 1555 1554 1553 1552 1550 1549 1547 1546 1545 1544 1543 1542 1541 1540 1539 1537 1536 1535 1533 1531 1530 1529 1527 1525 1523 1521 1521 1521 1521 1520 1519 1518 1518 1517 1517 1516 1515 1514 1513 1512 1511 1510 1510 1509 1508 1507 1506 1505 1505 1504 1504 1504 1503 1503 1502 1502 1501 1500 1499 1499 1498 1497 1496 1496 1496 1495 1495 1495 1494 1493 1492 1492 1490 1489 1488 1487 1487 1486 1486
1556 1556 1556 1556 1556 1555 1555 1554 1553 1552 1550 1549 1547 1547 1546 1544 1544 1543 1541 1540 1539 1538 1536 1535 1533 1532 1531 1529 1528 1526 1523 1522 1521 1521 1521 1521 1520 1519 1519 1518 1518 1517 1516 1515 1513 1512 1511 1510 1510 1509 1508 1507 1506 1505 1504 1503 1503 1503 1503 1502 1502 1501 1501 1500 1499 1499 1498 1497 1496 1496 1495 1495 1495 1495 1494 1494 1493 1493 1493 1491 1490 1489 1488 1488 1487
1556 1556 1556 1556 1555 1556 1555 1555 1554 1552 1550 1549 1548 1547 1546 1545 1544 1543 1542 1541 1539 1538 1537 1535 1534 1533 1532 1530 1528 1526 1525 1523 1523 1522 1522 1522 1521 1520 1520 1519 1518 1518 1517 1515 1514 1513 1512 1511 1510 1509 1508 1506 1505 1505 1504 1503 1502 1502 1502 1501 1501 1501 1501 1500 1500 1499 1498 1497 1496 1496 1495 1495 1495 1494 1494 1494 1494 1494 1494 1493 1492 1491 1490 1490 1489
1557 1556 1556 1555 1555 1555 1555 1555 1553 1552 1551 1549 1548 1548 1547 1546 1545 1544 1543 1542 1540 1538 1537 1536 1535 1534 1533 1532 1530 1528 1526 1525 1524 1524 1523 1522 1522 1521 1521 1520 1519 1518 1517 1516 1514 1513 1512 1511 1510 1509 1508 1506 1505 1505 1504 1503 1502 1502 1501 1501 1501 1501 1500 1500 1499 1499 1498 1497 1496 1495 1495 1494 1494 1494 1494 1493 1494 1494 1493 1493 1493 1492 1491 1491 1491
1557 1557 1556 1555 1555 1555 1555 1554 1553 1553 1551 1550 1549 1548 1548 1547 1546 1544 1543 1542 1541 1539 1537 1537 1536 1536 1535 1533 1531 1529 1528 1526 1526 1525 1524 1524 1523 1522 1522 1521 1520 1519 1518 1516 1515 1513 1512 1511 1510 1508 1508 1506 1505 1504 1504 1503 1502 1502 1501 1501 1501 1500 1500 1500 1499 1499 1498 1497 1497 1496 1495 1494 1494 1494 1494 1493 1493 1493 1493 1493 1493 1492 1492 1492 1491
1557 1557 1557 1556 1555 1555 1555 1555 1554 1553 1552 1551 1550 1549 1548 1547 1546 1545 1544 1543 1542 1540 1539 1538 1537 1536 1536 1535 1533 1531 1529 1527 1527 1526 1526 1525 1524 1523 1522 1521 1520 1519 1518 1516 1515 1513 1512 1510 1509 1508 1507 1506 1505 1504 1504 1503 1502 1502 1502 1501 1501 1501 1500 1500 1499 1499 1498 1497 1497 1496 1495 1494 1494 1494 1493 1493 1493 1493 1493 1493 1493 1492 1492 1492 1492
1557 1557 1557 1556 1555 1555 1555 1555 1554 1553 1552 1551 1550 1549 1549 1548 1547 1546 1544 1543 1542 1541 1540 1540 1538 1538 1537 1536 1534 1532 1530 1528 1528 1527 1527 1525 1525 1524 1523 1522 1520 1519 1518 1516 1515 1513 1511 1510 1509 1507 1506 1505 1505 1504 1504 1503 1503 1503 1503 1502 1501 1501 1500 1500 1499 1499 1498 1497 1497 1496 1495 1495 1494 1494 1493 1493 1493 1493 1492 1492 1492 1492 1492 1492 1492
1557 1557 1557 1556 1556 1555 1555 1554 1554 1553 1552 1552 1551 1550 1549 1548 1547 1547 1545 1544 1544 1542 1542 1541 1539 1539 1538 1536 1535 1533 1531 1529 1528 1528 1527 1526 1525 1524 1523 1522 1521 1519 1518 1516 1515 1513 1511 1510 1508 1507 1506 1505 1505 1504 1503 1503 1503 1503 1503 1502 1502 1501 1500 1500 1499 1498 1498 1497 1497 1496 1495 1495 1494 1494 1494 1494 1493 1493 1492 1492 1492 1492 1492 1492 1491
1557 1557 1557 1557 1556 1555 1555 1554 1554 1553 1552 1552 1551 1550 1550 1549 1548 1547 1546 1545 1544 1543 1543 1541 1540 1540 1539 1537 1536 1534 1532 1530 1529 1528 1527 1526 1525 1524 1523 1522 1521 1520 1518 1517 1515 1514 1512 1510 1508 1506 1506 1505 1504 1504 1503 1503 1502 1502 1502 1502 1502 1501 1500 1500 1499 1499 1498 1497 1497 1496 1496 1495 1494 1494 1494 1494 1493 1493 1492 1492 1492 1492 1492 1492 1491
1557 1557 1557 1557 1556 1555 1555 1554 1553 1553 1553 1552 1551 1551 1550 1549 1548 1548 1547 1546 1545 1544 1543 1542 1541 1541 1540 1538 1537 1535 1534 1532 1530 1529 1528 1527 1526 1525 1524 1523 1521 1520 1519 1517 1516 1514 1512 1510 1508 1507 1506 1505 1505 1504 1503 1503 1502 1502 1502 1502 1502 1501 1501 1500 1499 1499 1498 1497 1497 1496 1495 1495 1494 1494 1493 1493 1493 1493 1492 1492 1491 1492 1492 1492 1491
1557 1557 1557 1556 1556 1555 1554 1554 1553 1553 1553 1552 1552 1551 1550 1549 1549 1548 1547 1547 1546 1545 1544 1543 1542 1542 1541 1539 1538 1537 1535 1534 1532 1531 1529 1528 1527 1525 1524 1523 1522 1521 1520 1518 1517 1515 1513 1511 1510 1509 1508 1506 1505 1505 1504 1503 1503 1502 1502 1501 1501 1501 1500 1500 1499 1498 1498 1497 1496 1496 1495 1495 1494 1493 1493 1492 1492 1492 1492 1491 1491 1491 1491 1491 1491
1557 1557 1556 1556 1555 1555 1554 1554 1553 1553 1553 1552 1551 1551 1550 1550 1549 1548 1548 1547 1547 1546 1545 1544 1543 1542 1541 1540 1539 1538 1537 1536 1534 1532 1531 1529 1528 1526 1525 1523 1522 1521 1520 1519 1518 1516 1514 1513 1512 1510 1509 1507 1507 1506 1505 1504 1503 1502 1502 1501 1501 1500 1500 1499 1499 1498 1498 1497 1496 1496 1495 1494 1494 1493 1493 1492 1492 1492 1491 1491 1491 1491 1491 1491 1491
1557 1557 1556 1556 1555 1555 1554 1553 1553 1553 1553 1552 1551 1551 1551 1550 1549 1549 1548 1548 1547 1546 1546 1545 1544 1543 1542 1541 1540 1539 1538 1536 1535 1534 1532 1530 1529 1527 1525 1524 1523 1522 1521 1520 1518 1517 1515 1514 1513 1512 1510 1509 1508 1507 1506 1505 1504 1503 1502 1501 1501 1500 1499 1499 1499 1499 1498 1497 1496 1496 1495 1494 1494 1493 1493 1492 1492 1492 1491 1491 1491 1490 1491 1491 1490
1557 1557 1556 1555 1555 1555 1554 1554 1553 1553 1553 1552 1552 1551 1551 1550 1550 1549 1549 1548 1548 1547 1546 1545 1545 1544 1543 1542 1541 1540 1538 1537 1536 1534 1533 1531 1529 1528 1526 1525 1523 1522 1521 1520 1519 1518 1516 1515 1514 1514 1512 1510 1509 1508 1507 1506 1505 1503 1502 1501 1501 1500 1500 1499 1499 1499 1498 1497 1497 1496 1495 1495 1494 1493 1493 1492 1492 1491 1491 1490 1490 1490 1490 1490 1490
1557 1557 1556 1555 1555 1554 1554 1554 1554 1553 1553 1552 1552 1551 1551 1550 1550 1549 1549 1549 1548 1548 1547 1546 1545 1544 1543 1543 1542 1540 1539 1538 1536 1535 1533 1532 1530 1528 1527 1525 1524 1522 1521 1520 1519 1518 1517 1516 1515 1515 1513 1511 1510 1509 1508 1507 1505 1504 1503 1502 1501 1500 1499 1499 1499 1499 1498 1498 1497 1496 1495 1494 1494 1493 1493 1492 1491 1491 1490 1489 1488 1489 1489 1489 1489
1557 1557 1556 1555 1555 1554 1554 1554 1553 1553 1553 1552 1552 1552 1551 1551 1550 1549 1549 1549 1548 1548 1547 1546 1546 1545 1544 1543 1542 1541 1540 1538 1537 1536 1534 1532 1530 1528 1527 1525 1524 1522 1521 1520 1519 1518 1517 1516 1516 1515 1514 1512 1511 1510 1509 1507 1506 1504 1503 1502 1501 1500 1499 1499 1499 1498 1498 1498 1497 1496 1495 1495 1494 1493 1493 1492 1491 1490 1489 1488 1488 1487 1488 1488 1488
1557 1557 1556 1555 1555 1554 1554 1554 1553 1553 1552 1552 1552 1552 1551 1551 1550 1550 1550 1549 1548 1548 1547 1546 1546 1545 1545 1544 1542 1541 1540 1538 1537 1536 1534 1533 1531 1529 1527 1525 1524 1522 1520 1520 1519 1518 1517 1516 1515 1515 1514 1513 1512 1510 1509 1508 1507 1505 1504 1503 1501 1500 1500 1499 1499 1498 1498 1497 1496 1496 1495 1495 1494 1493 1493 1492 1491 1490 1489 1488 1488 1487 1487 1487 1487
1557 1557 1556 1556 1555 1555 1554 1554 1554 1553 1553 1552 1552 1552 1551 1551 1550 1550 1550 1549 1548 1548 1547 1546 1546 1545 1545 1544 1542 1541 1540 1538 1537 1536 1535 1533 1531 1529 1528 1526 1524 1522 1520 1520 1519 1518 1517 1516 1515 1515 1514 1513 1512 1511 1510 1509 1507 1506 1505 1503 1502 1501 1500 1499 1498 1498 1497 1496 1496 1495 1495 1494 1494 1493 1493 1492 1491 1490 1490 1489 1488 1487 1487 1487 1487
1558 1557 1557 1556 1556 1555 1555 1555 1554 1553 1553 1553 1552 1552 1552 1551 1551 1550 1550 1549 1548 1548 1547 1546 1546 1545 1544 1543 1542 1541 1540 1538 1537 1536 1535 1533 1532 1530 1528 1526 1524 1521 1520 1519 1519 1518 1517 1516 1516 1515 1514 1513 1512 1511 1510 1509 1508 1506 1505 1504 1503 1502 1500 1499 1498 1497 1496 1496 1495 1495 1494 1494 1493 1493 1492 1492 1491 1491 1490 1489 1488 1488 1487 1487 1487
1558 1558 1557 1557 1556 1555 1555 1555 1554 1554 1553 1553 1553 1552 1552 1551 1551 1550 1550 1549 1548 1547 1547 1546 1545 1544 1544 1543 1542 1541 1540 1538 1537 1536 1535 1533 1532 1530 1528 1526 1524 1521 1520 1519 1519 1518 1518 1517 1516 1515 1514 1513 1513 1512 1511 1510 1508 1507 1506 1505 1504 1502 1500 1499 1498 1497 1496 1495 1494 1494 1493 1493 1493 1493 1492 1492 1491 1491 1490 1489 1489 1488 1488 1487 1487
1558 1558 1558 1557 1556 1556 1555 1555 1554 1554 1554 1553 1553 1553 1552 1552 1551 1550 1550 1549 1548 1547 1546 1545 1544 1544 1543 1542 1542 1541 1539 1538 1537 1535 1534 1533 1532 1530 1528 1527 1525 1522 1520 1520 1520 1519 1518 1517 1516 1515 1515 1514 1513 1512 1512 1510 1509 1507 1506 1505 1504 1502 1500 1499 1498 1497 1496 1495 1494 1494 1493 1493 1493 1493 1492 1492 1491 1491 1490 1490 1489 1489 1488 1488 1488
1558 1558 1558 1557 1556 1556 1555 1555 1554 1554 1554 1553 1553 1552 1552 1551 1551 1550 1549 1548 1548 1547 1546 1545 1544 1543 1542 1542 1541 1540 1539 1538 1537 1535 1534 1533 1532 1530 1528 1527 1525 1523 1522 1522 1521 1520 1519 1518 1517 1516 1515 1515 1514 1513 1512 1511 1509 1508 1506 1505 1504 1502 1500 1499 1498 1497 1496 1495 1494 1494 1493 1493 1493 1493 1492 1492 1491 1490 1490 1490 1489 1489 1489 1488 1488
1558 1558 1558 1557 1556 1556 1555 1555 1555 1554 1554 1553 1552 1552 1551 1550 1550 1549 1548 1548 1547 1546 1545 1544 1543 1542 1542 1541 1540 1539 1538 1537 1536 1535 1534 1532 1531 1530 1529 1528 1526 1525 1524 1523 1522 1520 1519 1518 1518 1517 1516 1515 1514 1513 1512 1511 1510 1508 1507 1506 1504 1502 1501 1500 1498 1497 1496 1495 1494 1494 1493 1493 1493 1493 1492 1491 1491 1490 1490 1490 1490 1489 1489 1488 1488
1558 1557 1557 1557 1556 1556 1555 1555 1554 1554 1553 1553 1552 1551 1551 1550 1549 1548 1548 1547 1546 1545 1544 1544 1542 1542 1541 1540 1539 1538 1537 1536 1535 1534 1533 1532 1531 1530 1529 1528 1526 1525 1524 1523 1522 1521 1520 1519 1518 1518 1517 1516 1514 1513 1512 1511 1509 1509 1507 1506 1505 1503 1501 1500 1499 1498 1497 1496 1495 1494 1493 1493 1492 1492 1492 1491 1491 1490 1490 1490 1490 1489 1489 1489 1488
1558 1557 1556 1556 1556 1555 1555 1554 1554 1553 1553 1552 1552 1551 1550 1549 1548 1547 1547 1546 1545 1544 1544 1543 1542 1541 1540 1539 1538 1537 1536 1535 1534 1533 1532 1531 1530 1529 1528 1527 1526 1525 1524 1523 1522 1521 1520 1520 1518 1517 1517 1515 1514 1513 1512 1510 1509 1509 1508 1507 1506 1504 1502 1501 1500 1499 1498 1497 1496 1495 1494 1493 1492 1492 1491 1491 1490 1490 1490 1490 1490 1489 1489 1489 1488
1557 1557 1556 1555 1555 1555 1554 1553 1553 1552 1552 1551 1551 1550 1549 1548 1548 1547 1546 1545 1544 1543 1543 1541 1541 1540 1539 1538 1537 1536 1535 1534 1532 1531 1530 1529 1528 1528 1527 1526 1525 1525 1524 1523 1522 1521 1521 1520 1519 1517 1516 1515 1513 1512 1511 1510 1510 1509 1508 1507 1506 1505 1503 1502 1501 1500 1499 1497 1496 1495 1494 1493 1492 1492 1492 1491 1490 1490 1490 1489 1489 1489 1489 1489 1488
1557 1556 1555 1555 1555 1554 1553 1553 1552 1551 1551 1550 1550 1549 1548 1547 1546 1545 1545 1544 1543 1542 1541 1540 1539 1538 1537 1536 1535 1534 1533 1532 1531 1530 1529 1528 1527 1526 1525 1525 1524 1524 1523 1523 1522 1521 1520 1519 1518 1517 1516 1515 1514 1513 1512 1511 1510 1510 1509 1508 1507 1505 1504 1503 1502 1501 1500 1498 1497 1496 1494 1493 1493 1492 1492 1491 1491 1490 1490 1489 1489 1489 1489 1489 1488
1556 1556 1555 1555 1554 1553 1553 1552 1551 1550 1550 1549 1548 1548 1547 1546 1545 1544 1543 1543 1542 1541 1540 1539 1538 1537 1536 1535 1534 1533 1532 1531 1530 1529 1527 1526 1526 1525 1524 1524 1523 1523 1523 1522 1521 1521 1520 1519 1518 1517 1516 1515 1514 1513 1512 1512 1511 1510 1509 1508 1507 1506 1505 1504 1503 1502 1500 1499 1498 1496 1495 1494 1493 1493 1492 1491 1491 1490 1490 1489 1489 1488 1488 1488 1488
1556 1555 1554 1554 1553 1553 1552 1551 1550 1550 1549 1548 1547 1546 1545 1544 1544 1543 1542 1541 1540 1539 1538 1537 1536 1535 1534 1533 1532 1532 1531 1529 1528 1527 1525 1525 1524 1523 1523 1522 1522 1521 1521 1521 1521 1520 1519 1519 1518 1517 1516 1515 1514 1513 1512 1512 1511 1511 1510 1509 1508 1507 1506 1504 1503 1502 1501 1499 1498 1497 1495 1494 1494 1493 1492 1492 1491 1490 1490 1489 1489 1488 1488 1488 1488
1555 1554 1554 1553 1552 1552 1551 1550 1550 1549 1548 1547 1546 1545 1544 1543 1542 1542 1541 1540 1539 1538 1537 1536 1535 1534 1533 1532 1531 1530 1529 1528 1526 1525 1524 1523 1523 1522 1522 1521 1520 1520 1520 1520 1520 1519 1518 1518 1517 1516 1516 1515 1514 1513 1512 1511 1511 1510 1510 1509 1508 1507 1506 1505 1504 1503 1501 1500 1499 1497 1496 1495 1494 1493 1492 1492 1491 1490 1489 1489 1489 1488 1488 1488 1487
1554 1553 1553 1552 1552 1551 1550 1550 1549 1548 1547 1546 1545 1544 1544 1543 1542 1541 1540 1539 1538 1537 1536 1535 1534 1532 1531 1530 1529 1528 1527 1526 1525 1524 1523 1522 1522 1521 1521 1520 1519 1519 1519 1519 1519 1518 1517 1517 1516 1516 1516 1515 1514 1513 1512 1511 1510 1510 1509 1509 1508 1507 1506 1506 1504 1503 1502 1501 1499 1498 1496 1495 1494 1493 1492 1492 1491 1490 1489 1489 1489 1488 1487 1487 1487
1553 1553 1552 1552 1551 1550 1550 1549 1548 1547 1546 1546 1545 1544 1543 1542 1541 1540 1539 1538 1537 1535 1534 1533 1532 1531 1530 1529 1528 1527 1526 1525 1524 1523 1522 1521 1521 1520 1519 1519 1518 1518 1518 1518 1518 1517 1516 1516 1516 1515 1515 1515 1514 1513 1512 1511 1510 1509 1509 1508 1508 1507 1506 1506 1504 1503 1502 1501 1500 1498 1497 1496 1495 1494 1493 1492 1491 1491 1490 1489 1488 1488 1487 1487 1487
1552 1552 1551 1551 1550 1550 1549 1548 1547 1546 1546 1545 1544 1543 1543 1542 1541 1540 1539 1537 1536 1535 1534 1533 1532 1530 1529 1528 1527 1526 1525 1524 1523 1522 1521 1520 1519 1519 1518 1518 1517 1517 1517 1517 1517 1516 1515 1515 1515 1515 1515 1514 1514 1513 1512 1511 1510 1509 1508 1507 1507 1507 1506 1505 1504 1504 1502 1501 1500 1499 1497 1496 1495 1494 1493 1492 1492 1491 1490 1489 1488 1488 1487 1487 1486
1551 1551 1550 1550 1549 1549 1548 1547 1546 1545 1545 1544 1543 1542 1542 1541 1540 1539 1538 1537 1536 1535 1534 1532 1531 1530 1529 1527 1526 1525 1524 1523 1522 1521 1520 1519 1518 1518 1517 1517 1516 1517 1517 1516 1516 1515 1515 1514 1514 1514 1514 1513 1513 1512 1511 1510 1509 1508 1507 1507 1507 1507 1506 1505 1504 1504 1502 1501 1500 1499 1498 1496 1495 1494 1494 1493 1492 1491 1490 1489 1488 1488 1487 1487 1486
1551 1550 1550 1549 1548 1548 1547 1546 1545 1544 1544 1543 1542 1542 1541 1540 1539 1538 1537 1536 1535 1534 1533 1531 1530 1529 1528 1526 1525 1524 1523 1522 1521 1520 1519 1518 1517 1517 1516 1516 1515 1515 1515 1515 1515 1514 1513 1513 1513 1512 1512 1512 1512 1512 1511 1509 1509 1508 1507 1507 1507 1506 1506 1505 1504 1503 1502 1501 1500 1499 1498 1496 1495 1495 1494 1493 1492 1491 1490 1489 1489 1488 1487 1486 1485
1549 1549 1549 1548 1547 1547 1546 1545 1544 1543 1543 1542 1541 1541 1540 1539 1538 1537 1536 1535 1534 1533 1532 1530 1529 1528 1527 1526 1524 1523 1522 1521 1520 1519 1518 1517 1516 1516 1515 1515 1514 1514 1514 1514 1513 1513 1512 1512 1511 1511 1511 1511 1511 1510 1509 1508 1508 1507 1507 1507 1507 1506 1506 1505 1504 1503 1502 1501 1500 1499 1497 1496 1495 1494 1494 1493 1492 1491 1491 1490 1489 1488 1487 1486 1486
1548 1548 1548 1547 1546 1546 1545 1544 1543 1542 1541 1541 1540 1540 1539 1538 1537 1536 1535 1533 1532 1531 1530 1529 1528 1527 1526 1525 1523 1522 1521 1520 1519 1518 1517 1516 1516 1515 1514 1514 1513 1513 1513 1512 1512 1511 1511 1511 1510 1510 1510 1510 1510 1509 1509 1507 1507 1506 1506 1506 1506 1506 1505 1504 1503 1502 1501 1500 1499 1498 1497 1496 1495 1494 1494 1493 1492 1491 1491 1490 1489 1488 1487 1486 1486
1547 1547 1546 1546 1545 1545 1544 1543 1542 1541 1541 1540 1539 1539 1538 1537 1536 1535 1534 1532 1531 1530 1529 1527 1526 1525 1524 1524 1522 1521 1520 1519 1518 1517 1516 1515 1515 1514 1513 1513 1512 1511 1511 1511 1510 1510 1509 1509 1509 1509 1509 1508 1508 1508 1508 1507 1506 1505 1504 1504 1504 1504 1504 1503 1503 1502 1501 1500 1499 1498 1497 1496 1495 1494 1493 1492 1492 1491 1491 1490 1489 1488 1487 1486 1486
1546 1545 1545 1544 1544 1543 1543 1542 1541 1540 1540 1539 1538 1538 1537 1536 1534 1533 1532 1530 1529 1528 1527 1526 1525 1524 1523 1522 1521 1520 1519 1518 1517 1516 1515 1514 1513 1513 1512 1511 1511 1510 1510 1509 1509 1508 1508 1507 1507 1507 1507 1507 1507 1507 1506 1506 1505 1504 1504 1503 1502 1502 1502 1502 1502 1501 1500 1499 1498 1498 1497 1496 1494 1494 1493 1492 1491 1490 1490 1490 1489 1489 1488 1487 1486
1544 1544 1543 1543 1543 1542 1541 1541 1540 1539 1539 1538 1537 1536 1535 1534 1533 1532 1530 1529 1528 1527 1526 1525 1524 1523 1522 1521 1520 1519 1518 1517 1516 1515 1513 1513 1512 1511 1511 1510 1509 1509 1509 1508 1507 1507 1507 1506 1506 1507 1506 1506 1506 1505 1505 1505 1504 1503 1503 1502 1501 1500 1500 1500 1501 1500 1500 1499 1498 1497 1496 1495 1494 1493 1493 1492 1491 1490 1490 1490 1489 1488 1488 1487 1487
1543 1542 1542 1542 1541 1540 1540 1539 1539 1539 1538 1537 1536 1535 1534 1533 1531 1530 1529 1528 1527 1525 1524 1524 1522 1521 1520 1519 1518 1517 1516 1515 1514 1513 1512 1511 1510 1509 1509 1509 1508 1508 1508 1507 1507 1506 1506 1505 1506 1506 1505 1505 1505 1505 1504 1504 1503 1502 1502 1501 1500 1499 1499 1499 1499 1499 1499 1498 1497 1496 1496 1495 1494 1493 1492 1491 1490 1490 1490 1489 1489 1488 1487 1487 1487
1541 1541 1540 1540 1539 1539 1538 1538 1538 1537 1537 1536 1535 1534 1533 1532 1530 1529 1528 1526 1525 1524 1523 1522 1521 1520 1519 1518 1516 1515 1515 1514 1513 1512 1511 1510 1509 1508 1508 1507 1507 1506 1506 1506 1505 1505 1504 1504 1505 1504 1504 1504 1504 1503 1503 1502 1502 1501 1500 1499 1499 1498 1497 1497 1497 1497 1497 1497 1496 1496 1495 1494 1493 1492 1492 1491 1490 1489 1489 1489 1488 1488 1487 1487 1487
1540 1539 1538 1538 1538 1537 1537 1537 1536 1536 1535 1535 1534 1533 1531 1530 1529 1527 1526 1525 1524 1523 1522 1520 1519 1518 1517 1516 1515 1514 1513 1512 1511 1510 1509 1508 1507 1507 1506 1506 1505 1505 1505 1504 1504 1503 1503 1503 1503 1503 1502 1502 1502 1502 1501 1501 1500 1500 1499 1498 1497 1497 1496 1496 1496 1496 1496 1496 1495 1495 1494 1493 1492 1491 1491 1490 1489 1489 1488 1488 1488 1487 1487 1487 1487
1537 1537 1537 1537 1536 1536 1536 1535 1535 1534 1534 1534 1533 1531 1530 1529 1527 1526 1525 1524 1523 1522 1520 1519 1518 1517 1515 1515 1514 1512 1512 1511 1510 1509 1508 1507 1506 1505 1505 1504 1504 1503 1503 1502 1502 1502 1502 1502 1501 1501 1501 1501 1500 1500 1500 1500 1499 1499 1498 1497 1496 1496 1496 1495 1495 1495 1495 1494 1494 1493 1492 1492 1491 1490 1490 1489 1489 1488 1487 1487 1487 1487 1487 1487 1487
1535 1535 1535 1535 1535 1535 1534 1534 1534 1534 1533 1532 1531 1530 1529 1527 1526 1525 1524 1523 1521 1520 1519 1518 1516 1515 1514 1513 1512 1511 1510 1509 1508 1508 1507 1505 1504 1504 1503 1502 1502 1502 1501 1501 1501 1500 1500 1500 1500 1500 1499 1499 1499 1499 1499 1498 1498 1497 1496 1495 1495 1495 1494 1494 1494 1493 1493 1492 1492 1491 1490 1490 1489 1489 1489 1488 1488 1487 1486 1486 1486 1486 1486 1487 1487
1534 1534 1534 1534 1534 1533 1533 1533 1533 1532 1531 1531 1530 1528 1527 1526 1525 1524 1522 1521 1520 1519 1518 1516 1515 1514 1512 1511 1510 1509 1509 1508 1507 1506 1505 1504 1503 1502 1502 1501 1500 1500 1500 1499 1499 1499 1498 1498 1498 1498 1498 1498 1498 1498 1497 1497 1497 1496 1495 1494 1494 1493 1493 1493 1493 1492 1491 1490 1489 1489 1488 1488 1488 1488 1487 1487 1487 1486 1486 1485 1486 1486 1486 1486 1486
1533 1532 1533 1533 1532 1532 1532 1532 1532 1531 1530 1529 1528 1527 1526 1525 1523 1522 1521 1520 1519 1517 1516 1515 1513 1512 1511 1510 1509 1508 1507 1506 1505 1504 1503 1502 1501 1501 1500 1499 1499 1498 1498 1498 1497 1497 1497 1497 1496 1496 1496 1496 1496 1496 1496 1495 1495 1494 1494 1493 1492 1492 1492 1492 1491 1491 1490 1489 1488 1487 1487 1486 1486 1486 1486 1486 1486 1485 1485 1485 1485 1485 1485 1486 1485
1531 1531 1531 1531 1530 1530 1531 1530 1530 1529 1529 1528 1526 1525 1524 1523 1522 1521 1520 1518 1517 1516 1515 1513 1512 1511 1510 1508 1507 1506 1505 1504 1504 1503 1502 1501 1500 1499 1498 1498 1497 1497 1497 1496 1495 1495 1495 1495 1495 1495 1495 1494 1494 1494 1494 1494 1493 1493 1492 1492 1491 1491 1491 1490 1490 1489 1489 1487 1486 1485 1485 1485 1485 1485 1485 1485 1484 1484 1484 1484 1484 1485 1485 1485 1485